{"data":{"norad_id":53718,"intl_designator":"2022-107U","name":"STARLINK-4695","alt_names":[],"object_type":"PAYLOAD","status":"ACTIVE","operator":null,"country":"US","launch_date":"2022-09-05","launch_site_code":"AFETR","launch_vehicle":null,"mission":null,"orbit_class":"UNKNOWN","rcs_meters":null,"size_class":null,"mass_kg":null,"dimensions":null,"purposes":["comms"],"wikipedia_slug":null,"has_3d_model":false,"image_url":null,"decayed_at":null,"tle_current":{"epoch":"2026-09-20T02:51:21.537792Z","epoch_age_seconds":115281,"freshness":"FRESH","line1":"1 53718U 22107U   26263.11899928 -.00001828  00000+0 -47128-4 0  9998","line2":"2 53718  53.1590  89.5634 0001247  89.1333 270.9811 15.31709810223915","mean_motion":15.3170981,"eccentricity":0.0001247,"inclination_deg":53.159,"raan_deg":89.5634,"arg_perigee_deg":89.1333,"mean_anomaly_deg":270.9811,"bstar":-4.7128e-5,"rev_number":22391,"period_min":94.012585843529,"perigee_km":469.85670096749,"apogee_km":471.5648035969,"semimajor_km":6848.8477522822,"source":"CELESTRAK","updated_at":"2026-09-21T09:00:32.984814Z"}}}